Weather History for KTHV - October, 2013

Change the Weather History Date:

Friday, October 11, 2013

  Actual Average Record
Temperature  
Mean Temperature 58 °F -  
Max Temperature 62 °F 0 °F 82 °F (2010)
Min Temperature 55 °F - 37 °F (2001)
Degree Days  
Heating Degree Days 6    
Growing Degree Days 8 (Base 50)    
Moisture  
Dew Point 57 °F    
Average Humidity 93    
Maximum Humidity 100    
Minimum Humidity 88    
Precipitation  
Precipitation 5.16 in - - ()
Sea Level Pressure  
Sea Level Pressure 30.02 in    
Wind  
Wind Speed 7 mph (NNE)    
Max Wind Speed 13 mph    
Max Gust Speed 18 mph    
Visibility 3 miles    
Events Fog , Rain    
Averages and records for this station are not official NWS values.
T = Trace of Precipitation, MM = Missing Value Source: NWS Daily Summary

Daily Weather History Graph

Daily Weather History Graph

Search for Another Location

Airport or City:

Trip Planner

Search our weather history database for the weather conditions in past years. The results will help you decide how hot, cold, wet, or windy it might be!

Date:

Astronomy

Oct. 11, 2013 Rise Set
Actual Time 7:13 AM EDT 6:33 PM EDT
Civil Twilight 6:46 AM EDT 7:00 PM EDT
Nautical Twilight 6:15 AM EDT 7:32 PM EDT
Astronomical Twilight 5:44 AM EDT 8:03 PM EDT
Moon 1:54 PM EDT (10/11) No Moon Set
Length of Visible Light 12h 13m
Length of Day
11h 19m
Waxing Crescent, 47% of the Moon is Illuminated
Oct 11
Waxing Crescent
Oct 11
First Quarter
Oct 18
Full
Oct 26
Last Quarter
Nov 3
New

Hourly Weather History & Observations

Time (EDT) Temp. Dew Point Humidity Pressure Visibility Wind Dir Wind Speed Gust Speed Precip Events Conditions
12:12 AM 57.2 °F 55.4 °F 94% 30.03 in 2.5 mi North 5.8 mph - 0.10 in Rain Rain
12:15 AM 57.2 °F 55.4 °F 94% 30.03 in 4.0 mi North 4.6 mph - 0.11 in Rain Light Rain
12:24 AM 57.2 °F 55.4 °F 94% 30.04 in 4.0 mi Variable 3.5 mph - 0.13 in Rain Heavy Rain
12:53 AM 57.0 °F 55.0 °F 93% 30.04 in 4.0 mi NNE 6.9 mph - 0.22 in Rain Rain
1:09 AM 57.2 °F 55.4 °F 94% 30.02 in 5.0 mi NNE 8.1 mph - 0.03 in Rain Rain
1:48 AM 57.2 °F 55.4 °F 94% 30.02 in 9.0 mi NE 9.2 mph - 0.05 in Rain Light Rain
1:53 AM 57.0 °F 54.0 °F 89% 30.03 in 7.0 mi NE 9.2 mph - 0.05 in Rain Light Rain
2:28 AM 57.2 °F 53.6 °F 88% 30.01 in 10.0 mi NE 12.7 mph 18.4 mph 0.02 in   Overcast
2:53 AM 57.0 °F 54.0 °F 89% 30.01 in 7.0 mi NE 4.6 mph - 0.02 in Rain Light Rain
2:57 AM 57.2 °F 53.6 °F 88% 30.00 in 7.0 mi NNE 4.6 mph - 0.00 in Rain Light Rain
3:53 AM 57.0 °F 55.0 °F 93% 30.00 in 8.0 mi NE 5.8 mph - 0.05 in Rain Light Rain
4:23 AM 57.2 °F 55.4 °F 94% 29.99 in 5.0 mi NNE 6.9 mph - 0.02 in Rain Light Rain
4:48 AM 57.2 °F 55.4 °F 94% 29.99 in 4.0 mi North 4.6 mph - 0.04 in Rain Light Rain
4:53 AM 57.0 °F 55.0 °F 93% 30.00 in 4.0 mi NNE 5.8 mph - 0.05 in Rain Light Rain
5:02 AM 57.2 °F 55.4 °F 94% 29.99 in 3.0 mi Variable 4.6 mph - 0.03 in Rain Rain
5:09 AM 57.2 °F 55.4 °F 94% 29.99 in 2.5 mi Variable 5.8 mph - 0.05 in Rain Heavy Rain
5:16 AM 57.2 °F 55.4 °F 94% 29.99 in 2.0 mi Variable 4.6 mph - 0.11 in Rain Heavy Rain
5:30 AM 57.2 °F 55.4 °F 94% 30.00 in 3.0 mi NE 3.5 mph - 0.18 in Rain Rain
5:41 AM 57.2 °F 55.4 °F 94% 30.00 in 2.0 mi NNE 9.2 mph - 0.26 in Rain Heavy Rain
5:53 AM 55.9 °F 55.0 °F 97% 30.00 in 3.0 mi NNE 6.9 mph - 0.32 in Rain Rain
6:00 AM 57.2 °F 55.4 °F 94% 29.99 in 2.5 mi NNE 8.1 mph - 0.03 in Rain Heavy Rain
6:06 AM 57.2 °F 55.4 °F 94% 29.99 in 1.8 mi NNE 6.9 mph - 0.09 in Rain Heavy Rain
6:18 AM 57.2 °F 55.4 °F 94% 29.99 in 2.0 mi NNE 5.8 mph - 0.20 in Rain Heavy Rain
6:28 AM 57.2 °F 55.4 °F 94% 29.99 in 1.2 mi North 3.5 mph - 0.34 in Rain Heavy Rain
6:39 AM 57.2 °F 55.4 °F 94% 29.99 in 2.5 mi NNE 9.2 mph - 0.41 in Rain Heavy Rain
6:48 AM 57.2 °F 55.4 °F 94% 30.00 in 6.0 mi NNE 11.5 mph - 0.42 in Rain Light Rain
6:53 AM 57.0 °F 55.0 °F 93% 30.01 in 8.0 mi NNE 10.4 mph - 0.42 in Rain Light Rain
7:00 AM 57.2 °F 55.4 °F 94% 30.00 in 6.0 mi NNE 6.9 mph - 0.01 in Rain Rain
7:09 AM 57.2 °F 55.4 °F 94% 30.00 in 8.0 mi NNE 8.1 mph - 0.02 in Rain Light Rain
7:35 AM 57.2 °F 55.4 °F 94% 30.01 in 4.0 mi NNE 5.8 mph - 0.02 in Rain Light Rain
7:38 AM 57.2 °F 55.4 °F 94% 30.01 in 2.5 mi NNE 6.9 mph - 0.02 in Rain Light Rain
7:53 AM 57.0 °F 55.0 °F 93% 30.02 in 4.0 mi NNE 9.2 mph - 0.03 in Rain Light Rain
8:08 AM 57.2 °F 55.4 °F 94% 30.01 in 2.0 mi NE 9.2 mph - 0.04 in Rain Heavy Rain
8:19 AM 57.2 °F 53.6 °F 88% 30.01 in 3.0 mi NNE 9.2 mph - 0.10 in Rain Heavy Rain
8:38 AM 57.2 °F 53.6 °F 88% 30.02 in 4.0 mi Variable 5.8 mph - 0.16 in Rain Heavy Rain
8:53 AM 57.0 °F 55.0 °F 93% 30.04 in 3.0 mi Variable 5.8 mph - 0.24 in Rain Heavy Rain
9:40 AM 57.2 °F 55.4 °F 94% 30.03 in 2.5 mi NE 10.4 mph - 0.25 in Rain Heavy Rain
9:53 AM 57.0 °F 55.0 °F 93% 30.04 in 2.5 mi NE 9.2 mph - 0.31 in Rain Heavy Rain
10:03 AM 57.2 °F 55.4 °F 94% 30.03 in 1.8 mi NE 6.9 mph - 0.04 in Rain Heavy Rain
10:11 AM 57.2 °F 55.4 °F 94% 30.03 in 1.8 mi NNE 8.1 mph - 0.08 in Rain Heavy Rain
10:25 AM 57.2 °F 55.4 °F 94% 30.02 in 1.8 mi NNE 6.9 mph - 0.15 in Rain Heavy Rain
10:28 AM 57.2 °F 55.4 °F 94% 30.03 in 2.5 mi NE 3.5 mph - 0.16 in Rain Rain
10:32 AM 57.2 °F 55.4 °F 94% 30.03 in 3.0 mi NE 5.8 mph - 0.17 in Rain Rain
10:34 AM 57.2 °F 55.4 °F 94% 30.03 in 1.8 mi NE 6.9 mph - 0.22 in Rain Rain
10:37 AM 57.2 °F 55.4 °F 94% 30.03 in 0.8 mi ENE 5.8 mph - 0.30 in Rain Heavy Rain
10:53 AM 57.0 °F 55.0 °F 93% 30.04 in 0.5 mi NE 8.1 mph - 0.69 in Fog , Rain Heavy Rain
11:30 AM 57.2 °F 55.4 °F 94% 30.03 in 0.5 mi NNE 4.6 mph - 0.78 in Fog , Rain Heavy Rain
11:44 AM 57.2 °F 55.4 °F 94% 30.02 in 0.8 mi NNE 4.6 mph - 0.98 in Rain Heavy Rain
11:53 AM 57.0 °F 55.9 °F 96% 30.03 in 0.8 mi North 5.8 mph - 1.08 in Rain Heavy Rain
12:08 PM 57.2 °F 55.4 °F 94% 30.02 in 1.2 mi Calm Calm - 0.09 in Rain Light Rain
12:12 PM 57.2 °F 55.4 °F 94% 30.02 in 2.5 mi North 4.6 mph - 0.10 in Rain Light Rain
12:26 PM 57.2 °F 55.4 °F 94% 30.02 in 2.0 mi North 9.2 mph - 0.13 in Rain Rain
12:30 PM 57.2 °F 55.4 °F 94% 30.02 in 1.0 mi North 8.1 mph - 0.21 in Rain Heavy Rain
12:38 PM 57.2 °F 55.4 °F 94% 30.01 in 0.8 mi North 8.1 mph - 0.31 in Rain Heavy Rain
12:53 PM 57.9 °F 57.0 °F 97% 30.01 in 1.0 mi North 8.1 mph - 0.45 in Rain Heavy Rain
12:56 PM 57.2 °F 57.2 °F 100% 30.01 in 1.2 mi North 6.9 mph - 0.01 in Rain Heavy Rain
1:05 PM 57.2 °F 57.2 °F 100% 30.01 in 0.8 mi NNE 10.4 mph - 0.12 in Rain Heavy Rain
1:11 PM 59.0 °F 57.2 °F 94% 30.00 in 1.0 mi North 9.2 mph - 0.16 in Rain Heavy Rain
1:16 PM 59.0 °F 57.2 °F 94% 30.00 in 1.8 mi North 8.1 mph - 0.17 in Rain Rain
1:19 PM 59.0 °F 57.2 °F 94% 30.00 in 2.0 mi NNE 9.2 mph - 0.17 in Rain Light Rain
1:27 PM 59.0 °F 57.2 °F 94% 30.00 in 1.8 mi NNE 10.4 mph - 0.18 in Rain Light Rain
1:29 PM 59.0 °F 57.2 °F 94% 30.00 in 2.0 mi North 8.1 mph - 0.18 in Rain Light Rain
1:37 PM 60.8 °F 57.2 °F 88% 30.00 in 2.5 mi NNE 8.1 mph - 0.19 in Rain Light Rain
1:50 PM 60.8 °F 57.2 °F 88% 30.00 in 1.8 mi NNE 6.9 mph - 0.19 in Rain Light Rain
1:51 PM 60.1 °F 57.9 °F 93% 30.00 in 1.8 mi NNE 6.9 mph - 0.19 in Rain Light Rain
2:19 PM 60.8 °F 59.0 °F 94% 29.99 in 0.8 mi NNE 9.2 mph - 0.06 in Rain Rain
2:27 PM 60.8 °F 59.0 °F 94% 29.99 in 1.2 mi NNE 6.9 mph - 0.08 in Rain Rain
2:38 PM 60.8 °F 59.0 °F 94% 29.99 in 0.8 mi NE 5.8 mph - 0.11 in Rain Rain
2:45 PM 60.8 °F 59.0 °F 94% 29.99 in 1.2 mi NNE 5.8 mph - 0.13 in Rain Rain
2:50 PM 60.8 °F 59.0 °F 94% 29.99 in 2.5 mi NNE 8.1 mph - 0.14 in Rain Rain
2:53 PM 61.0 °F 59.0 °F 93% 30.00 in 3.0 mi NNE 8.1 mph - 0.14 in Rain Light Rain
3:15 PM 60.8 °F 59.0 °F 94% 29.99 in 2.5 mi NE 5.8 mph - 0.03 in Rain Rain
3:24 PM 60.8 °F 59.0 °F 94% 29.99 in 3.0 mi Variable 5.8 mph - 0.05 in Rain Rain
3:35 PM 60.8 °F 59.0 °F 94% 29.99 in 2.0 mi NNE 9.2 mph - 0.06 in Rain Light Rain
3:48 PM 60.8 °F 59.0 °F 94% 29.99 in 3.0 mi NNE 6.9 mph - 0.07 in Rain Light Rain
3:53 PM 61.0 °F 59.0 °F 93% 30.00 in 3.0 mi NNE 8.1 mph - 0.07 in Rain Light Rain
3:58 PM 60.8 °F 59.0 °F 94% 30.00 in 2.0 mi NNE 6.9 mph - 0.00 in Rain Light Rain
4:06 PM 60.8 °F 59.0 °F 94% 30.00 in 1.2 mi NE 6.9 mph - 0.01 in Rain Light Rain
4:53 PM 61.0 °F 60.1 °F 97% 30.01 in 1.5 mi NNE 3.5 mph - 0.02 in Rain Light Rain
5:17 PM 62.6 °F 60.8 °F 94% 30.01 in 4.0 mi NNE 4.6 mph - 0.01 in Rain Light Rain
5:27 PM 62.6 °F 59.0 °F 88% 30.01 in 2.0 mi NNE 5.8 mph - 0.03 in Rain Rain
5:31 PM 60.8 °F 59.0 °F 94% 30.01 in 1.0 mi North 5.8 mph - 0.10 in Rain Heavy Rain
5:41 PM 60.8 °F 59.0 °F 94% 30.01 in 1.8 mi North 6.9 mph - 0.15 in Rain Heavy Rain
5:47 PM 60.8 °F 59.0 °F 94% 30.01 in 2.5 mi NNE 6.9 mph - 0.16 in Rain Rain
5:48 PM 61.0 °F 59.0 °F 93% 30.01 in 2.5 mi NNE 8.1 mph - 0.16 in Rain Rain
5:59 PM 60.8 °F 59.0 °F 94% 30.01 in 3.0 mi NNE 9.2 mph - 0.03 in Rain Rain
6:43 PM 62.6 °F 59.0 °F 88% 30.03 in 7.0 mi NE 9.2 mph - 0.12 in Rain Light Rain
6:53 PM 61.0 °F 59.0 °F 93% 30.03 in 9.0 mi NE 5.8 mph - 0.12 in Rain Light Rain
7:53 PM 61.0 °F 59.0 °F 93% 30.04 in 5.0 mi NE 9.2 mph - 0.04 in Rain Rain
8:15 PM 60.8 °F 59.0 °F 94% 30.04 in 7.0 mi Variable 5.8 mph - 0.03 in Rain Light Rain
8:53 PM 62.1 °F 59.0 °F 90% 30.05 in 5.0 mi NE 5.8 mph - 0.05 in Rain Light Rain
9:07 PM 60.8 °F 59.0 °F 94% 30.05 in 10.0 mi NNE 4.6 mph - 0.00 in Rain Light Rain
9:32 PM 60.8 °F 59.0 °F 94% 30.05 in 10.0 mi Variable 4.6 mph - 0.00 in   Overcast
9:41 PM 62.6 °F 59.0 °F 88% 30.05 in 9.0 mi Variable 5.8 mph - 0.00 in Rain Light Rain
9:53 PM 61.0 °F 59.0 °F 93% 30.06 in 5.0 mi ENE 5.8 mph - 0.03 in Rain Rain
10:15 PM 60.8 °F 59.0 °F 94% 30.05 in 2.5 mi NE 5.8 mph - 0.08 in Rain Heavy Rain
10:36 PM 60.8 °F 59.0 °F 94% 30.06 in 1.8 mi ENE 5.8 mph - 0.22 in Rain Heavy Rain
10:45 PM 60.8 °F 59.0 °F 94% 30.06 in 1.2 mi NE 8.1 mph - 0.35 in Rain Heavy Rain
10:53 PM 61.0 °F 59.0 °F 93% 30.06 in 2.5 mi NE 5.8 mph - 0.37 in Rain Rain
11:00 PM 60.8 °F 59.0 °F 94% 30.06 in 5.0 mi ENE 4.6 mph - 0.02 in Rain Rain
11:18 PM 60.8 °F 59.0 °F 94% 30.05 in 6.0 mi ENE 5.8 mph - 0.04 in Rain Light Rain
11:53 PM 61.0 °F 57.9 °F 90% 30.05 in 10.0 mi ENE 3.5 mph - 0.04 in   Overcast